Location: Gerlach
(40.6516°N, 119.3568°W)
Time: 09:50:55
(UTC-07:00)

ISS - Pass Details

Date: 25 August 2022
Orbit: 414 x 417 km, 51.6° (Epoch: 27 September)

Event Time Altitude Azimuth Distance (km) Brightness Sun altitude
Exits shadow 04:55:32 33° 221° (SW) 721 -3.1 -15.3°
Maximum altitude 04:56:52 75° 143° (SE) 436 -3.7 -15.1°
Drops below altitude 10° 05:00:14 10° 56° (ENE) 1,497 0.5 -14.5°
Sets 05:02:20 0° 55° (NE) 2,362 2.0 -14.1°
